Montauk, NY

7:20 AM EST on February 27, 2017 (GMT -0500)
Montauk

Weather History for KMTP - May, 2013

Change the Weather History Date:

Monday, May 13, 2013

  Actual Average (KHTO) Record (KHTO)
Temperature  
Mean Temperature 52 °F -  
Max Temperature 55 °F 64 °F 84 °F (1956)
Min Temperature 48 °F 47 °F 35 °F (1938)
Degree Days  
Heating Degree Days 14    
Growing Degree Days 2 (Base 50)    
Moisture  
Dew Point 32 °F    
Average Humidity 47    
Maximum Humidity 54    
Minimum Humidity 34    
Precipitation  
Precipitation 0.00 in - - ()
Sea Level Pressure  
Sea Level Pressure 30.00 in    
Wind  
Wind Speed 10 mph (West)    
Max Wind Speed 14 mph    
Max Gust Speed 25 mph    
Averages and records for this station are not official NWS values.
T = Trace of Precipitation, MM = Missing Value Source: NWS Daily Summary

Daily Weather History Graph

Daily Weather History Graph

Search for Another Location

Airport or City:

Trip Planner

Search our weather history database for the weather conditions in past years. The results will help you decide how hot, cold, wet, or windy it might be!

Date:

Astronomy

May. 13, 2013 Rise Set
Actual Time 5:31 AM EDT 7:57 PM EDT
Civil Twilight 5:00 AM EDT 8:28 PM EDT
Nautical Twilight 4:21 AM EDT 9:07 PM EDT
Astronomical Twilight 3:38 AM EDT 9:50 PM EDT
Moon 8:14 AM EDT (5/13) 11:04 PM EDT (5/13)
Length of Visible Light 15h 28m
Length of Day
14h 25m
Waxing Crescent, 12% of the Moon is Illuminated
May 13
Waxing Crescent
May 18
First Quarter
May 25
Full
May 31
Last Quarter
Jun 8
New

Hourly Weather History & Observations

Time (EDT) Temp. Dew Point Humidity Pressure Visibility Wind Dir Wind Speed Gust Speed Precip Events Conditions
12:54 AM 53.1 °F 36.0 °F 52% 29.91 in - West 9.2 mph 17.3 mph N/A   Unknown
1:54 AM 52.0 °F 34.0 °F 50% 29.93 in - West 10.4 mph - N/A   Unknown
2:54 AM 52.0 °F 35.1 °F 53% 29.93 in - West 10.4 mph 19.6 mph N/A   Unknown
3:54 AM 51.1 °F 34.0 °F 52% 29.94 in - West 9.2 mph 19.6 mph N/A   Unknown
4:54 AM 50.0 °F 32.0 °F 50% 29.96 in - West 13.8 mph 21.9 mph N/A   Unknown
5:54 AM 48.9 °F 33.1 °F 54% 29.99 in - West 8.1 mph 18.4 mph N/A   Unknown
6:54 AM 50.0 °F 32.0 °F 50% 30.00 in - West 11.5 mph 20.7 mph N/A   Unknown
7:54 AM 51.1 °F 33.1 °F 50% 30.01 in - West 10.4 mph 19.6 mph N/A   Unknown
8:54 AM 52.0 °F 33.1 °F 49% 30.02 in - West 12.7 mph 20.7 mph N/A   Unknown
9:54 AM 52.0 °F 28.0 °F 40% 30.02 in - West 13.8 mph 25.3 mph N/A   Unknown
10:54 AM 54.0 °F 30.9 °F 41% 30.02 in - West 11.5 mph 18.4 mph N/A   Unknown
11:54 AM 52.0 °F 32.0 °F 47% 30.03 in - West 6.9 mph - N/A   Unknown
12:54 PM 52.0 °F 32.0 °F 47% 30.03 in - West 5.8 mph - N/A   Unknown
1:54 PM 55.0 °F 32.0 °F 42% 30.02 in - WSW 9.2 mph - N/A   Unknown
2:54 PM 55.0 °F 28.9 °F 37% 30.01 in - West 11.5 mph 17.3 mph N/A   Unknown
4:54 PM 55.9 °F 28.0 °F 34% 29.99 in - West 9.2 mph - N/A   Unknown
5:54 PM 55.0 °F 30.0 °F 38% 29.98 in - West 8.1 mph 17.3 mph N/A   Unknown
6:54 PM 54.0 °F 32.0 °F 43% 29.99 in - West 9.2 mph 17.3 mph N/A   Unknown
7:54 PM 53.1 °F 33.1 °F 47% 30.00 in - WNW 6.9 mph - N/A   Unknown
8:54 PM 52.0 °F 34.0 °F 50% 30.03 in - NW 10.4 mph - N/A   Unknown
9:54 PM 51.1 °F 34.0 °F 52% 30.06 in - NW 12.7 mph 18.4 mph N/A   Unknown
10:54 PM 50.0 °F 32.0 °F 50% 30.06 in - NW 11.5 mph 18.4 mph N/A   Unknown
11:54 PM 48.9 °F 30.0 °F 48% 30.04 in - NW 10.4 mph - N/A   Unknown